^^
Your Local Weather - Clay, NY Station Historical Data
Daily Summary for November 16, 2017 Units:  English    Metric   Both
« Previous Day
Next Day »
Daily Weekly Monthly Yearly Custom
  High: Low: Average:
Temperature: 48.8 °F 35.8 °F 43.9 °F
Dew Point: 40.9 °F 30.1 °F 36.4 °F
Humidity: 88% 64% 75%
Wind Speed: 9.0mph 1.0mph 4.8mph
Wind Gust: 13.0mph - -
Wind- - WSW
Pressure: 29.97 in 29.69 in -
Precipitation: 0.10 in    
Historical Graphs
 
 
Tabular Data for November 16, 2017
Time Temperature Dew Point Pressure Wind Wind Speed Wind Gust Humidity Rainfall Rate (Hourly) solar
00:02 45.8 °F 34.3 °F 29.80 in SSE 8.0 mph 10.0 mph 64% 0.00 in 0 W/m2
00:08 45.7 °F 34.6 °F 29.79 in South 6.0 mph 10.0 mph 65% 0.00 in 0 W/m2
00:14 45.8 °F 34.3 °F 29.79 in SW 5.0 mph 8.0 mph 64% 0.00 in 0 W/m2
00:20 45.9 °F 34.4 °F 29.78 in SSE 6.0 mph 7.0 mph 64% 0.00 in 0 W/m2
00:26 46.0 °F 34.5 °F 29.78 in SSW 7.0 mph 12.0 mph 64% 0.00 in 0 W/m2
00:32 46.0 °F 34.5 °F 29.78 in SE 7.0 mph 7.0 mph 64% 0.00 in 0 W/m2
00:38 46.2 °F 34.7 °F 29.78 in South 7.0 mph 11.0 mph 64% 0.00 in 0 W/m2
00:44 46.2 °F 34.7 °F 29.78 in SSE 9.0 mph 13.0 mph 64% 0.00 in 0 W/m2
00:46 46.2 °F 34.7 °F 29.78 in South 8.0 mph 13.0 mph 64% 0.00 in 0 W/m2
00:52 46.0 °F 35.3 °F 29.77 in SE 7.0 mph 11.0 mph 66% 0.00 in 0 W/m2
00:58 45.8 °F 35.5 °F 29.77 in SSW 7.0 mph 11.0 mph 67% 0.00 in 0 W/m2
01:04 45.7 °F 35.4 °F 29.77 in SSE 7.0 mph 10.0 mph 67% 0.00 in 0 W/m2
01:10 45.6 °F 35.6 °F 29.77 in SSE 7.0 mph 9.0 mph 68% 0.00 in 0 W/m2
01:16 45.4 °F 35.8 °F 29.76 in SSE 7.0 mph 10.0 mph 69% 0.00 in 0 W/m2
01:22 45.5 °F 35.5 °F 29.76 in SSE 7.0 mph 10.0 mph 68% 0.00 in 0 W/m2
01:28 45.7 °F 35.7 °F 29.75 in South 7.0 mph 10.0 mph 68% 0.00 in 0 W/m2
01:34 45.8 °F 35.8 °F 29.75 in South 6.0 mph 9.0 mph 68% 0.00 in 0 W/m2
01:40 46.0 °F 36.0 °F 29.75 in South 7.0 mph 7.0 mph 68% 0.00 in 0 W/m2
01:46 46.1 °F 35.7 °F 29.75 in SSE 6.0 mph 7.0 mph 67% 0.00 in 0 W/m2
01:52 46.3 °F 35.9 °F 29.75 in SSW 7.0 mph 7.0 mph 67% 0.00 in 0 W/m2
01:58 46.3 °F 36.3 °F 29.75 in SSE 6.0 mph 9.0 mph 68% 0.00 in 0 W/m2
02:04 46.1 °F 36.9 °F 29.75 in SSE 6.0 mph 12.0 mph 70% 0.00 in 0 W/m2
02:10 46.0 °F 37.1 °F 29.74 in SE 6.0 mph 6.0 mph 71% 0.00 in 0 W/m2
02:16 46.1 °F 37.2 °F 29.75 in SSE 6.0 mph 10.0 mph 71% 0.00 in 0 W/m2
02:22 46.2 °F 37.3 °F 29.74 in South 6.0 mph 12.0 mph 71% 0.00 in 0 W/m2
02:30 46.3 °F 37.0 °F 29.74 in South 6.0 mph 9.0 mph 70% 0.00 in 0 W/m2
02:36 46.3 °F 37.4 °F 29.74 in South 5.0 mph 9.0 mph 71% 0.00 in 0 W/m2
02:42 46.4 °F 37.5 °F 29.74 in SSE 6.0 mph 8.0 mph 71% 0.00 in 0 W/m2
02:48 46.5 °F 37.6 °F 29.74 in SSW 7.0 mph 8.0 mph 71% 0.00 in 0 W/m2
02:54 46.4 °F 37.5 °F 29.73 in South 6.0 mph 7.0 mph 71% 0.00 in 0 W/m2
03:00 46.6 °F 37.7 °F 29.73 in SE 6.0 mph 6.0 mph 71% 0.00 in 0 W/m2
03:06 46.7 °F 37.8 °F 29.72 in SE 7.0 mph 9.0 mph 71% 0.00 in 0 W/m2
03:12 47.0 °F 38.1 °F 29.72 in South 8.0 mph 11.0 mph 71% 0.00 in 0 W/m2
03:18 47.1 °F 37.8 °F 29.72 in SSW 7.0 mph 11.0 mph 70% 0.00 in 0 W/m2
03:24 47.2 °F 37.9 °F 29.72 in South 8.0 mph 11.0 mph 70% 0.00 in 0 W/m2
03:30 47.1 °F 38.2 °F 29.72 in SW 8.0 mph 11.0 mph 71% 0.00 in 0 W/m2
03:36 47.0 °F 38.1 °F 29.71 in South 8.0 mph 11.0 mph 71% 0.00 in 0 W/m2
03:42 46.8 °F 37.9 °F 29.70 in South 7.0 mph 8.0 mph 71% 0.00 in 0 W/m2
03:48 46.7 °F 37.8 °F 29.70 in South 7.0 mph 10.0 mph 71% 0.00 in 0 W/m2
03:54 46.5 °F 38.0 °F 29.70 in SSW 6.0 mph 9.0 mph 72% 0.00 in 0 W/m2
04:00 46.5 °F 38.0 °F 29.70 in South 6.0 mph 6.0 mph 72% 0.00 in 0 W/m2
04:06 46.5 °F 38.0 °F 29.70 in South 7.0 mph 8.0 mph 72% 0.00 in 0 W/m2
04:12 46.7 °F 38.1 °F 29.70 in SW 7.0 mph 7.0 mph 72% 0.00 in 0 W/m2
04:18 46.6 °F 38.1 °F 29.70 in South 6.0 mph 9.0 mph 72% 0.00 in 0 W/m2
04:24 46.5 °F 38.0 °F 29.70 in South 6.0 mph 10.0 mph 72% 0.00 in 0 W/m2
04:30 46.6 °F 38.1 °F 29.70 in South 7.0 mph 7.0 mph 72% 0.00 in 0 W/m2
04:36 46.5 °F 38.3 °F 29.70 in SSW 6.0 mph 7.0 mph 73% 0.00 in 0 W/m2
04:42 46.3 °F 38.1 °F 29.70 in South 4.0 mph 6.0 mph 73% 0.00 in 0 W/m2
04:48 46.2 °F 38.0 °F 29.70 in SSW 4.0 mph 7.0 mph 73% 0.00 in 0 W/m2
04:54 46.3 °F 38.5 °F 29.70 in SSW 5.0 mph 7.0 mph 74% 0.00 in 0 W/m2
05:00 46.4 °F 38.2 °F 29.70 in SSE 6.0 mph 6.0 mph 73% 0.00 in 0 W/m2
05:06 46.5 °F 38.3 °F 29.70 in SSW 6.0 mph 7.0 mph 73% 0.00 in 0 W/m2
05:12 46.5 °F 38.3 °F 29.70 in South 5.0 mph 5.0 mph 73% 0.00 in 0 W/m2
05:18 46.7 °F 38.5 °F 29.70 in SSE 5.0 mph 9.0 mph 73% 0.00 in 0 W/m2
05:24 46.8 °F 38.6 °F 29.70 in South 6.0 mph 10.0 mph 73% 0.00 in 0 W/m2
05:30 47.0 °F 38.4 °F 29.70 in SSW 6.0 mph 6.0 mph 72% 0.00 in 0 W/m2
05:36 47.0 °F 38.8 °F 29.70 in SSW 5.0 mph 6.0 mph 73% 0.00 in 0 W/m2
05:42 47.0 °F 38.8 °F 29.70 in SSW 5.0 mph 5.0 mph 73% 0.00 in 0 W/m2
05:48 47.2 °F 38.6 °F 29.70 in WSW 5.0 mph 7.0 mph 72% 0.00 in 0 W/m2
05:54 47.2 °F 39.0 °F 29.70 in SSW 5.0 mph 6.0 mph 73% 0.00 in 0 W/m2
06:00 47.2 °F 39.0 °F 29.70 in South 5.0 mph 5.0 mph 73% 0.00 in 0 W/m2
06:06 47.1 °F 39.2 °F 29.70 in SW 5.0 mph 8.0 mph 74% 0.00 in 0 W/m2
06:12 46.8 °F 39.3 °F 29.70 in South 5.0 mph 6.0 mph 75% 0.00 in 0 W/m2
06:18 46.6 °F 39.4 °F 29.70 in SSW 5.0 mph 7.0 mph 76% 0.00 in 0 W/m2
06:24 46.7 °F 39.5 °F 29.70 in SSW 6.0 mph 9.0 mph 76% 0.00 in 0 W/m2
06:30 46.7 °F 39.5 °F 29.70 in SW 5.0 mph 5.0 mph 76% 0.00 in 0 W/m2
06:36 46.7 °F 39.5 °F 29.70 in SW 4.0 mph 5.0 mph 76% 0.00 in 0 W/m2
06:42 47.0 °F 39.5 °F 29.70 in SSW 4.0 mph 4.0 mph 75% 0.00 in 0 W/m2
06:48 47.2 °F 39.3 °F 29.70 in South 4.0 mph 7.0 mph 74% 0.00 in 0 W/m2
06:54 47.2 °F 39.3 °F 29.70 in SSW 4.0 mph 7.0 mph 74% 0.00 in 0 W/m2
07:00 47.2 °F 39.3 °F 29.70 in WSW 4.0 mph 5.0 mph 74% 0.00 in 0 W/m2
07:06 46.9 °F 39.7 °F 29.70 in SW 4.0 mph 7.0 mph 76% 0.00 in 0 W/m2
07:12 46.6 °F 39.8 °F 29.70 in SW 4.0 mph 6.0 mph 77% 0.00 in 0 W/m2
07:18 46.5 °F 39.7 °F 29.70 in SW 4.0 mph 6.0 mph 77% 0.00 in 0 W/m2
07:24 46.6 °F 39.4 °F 29.70 in SSW 4.0 mph 5.0 mph 76% 0.00 in 5 W/m2
07:30 46.7 °F 39.5 °F 29.70 in WSW 3.0 mph 3.0 mph 76% 0.00 in 11 W/m2
07:36 46.7 °F 39.9 °F 29.70 in SW 2.0 mph 6.0 mph 77% 0.00 in 12 W/m2
07:42 46.7 °F 39.9 °F 29.71 in WSW 2.0 mph 3.0 mph 77% 0.00 in 23 W/m2
07:48 46.7 °F 39.9 °F 29.71 in WSW 1.0 mph 4.0 mph 77% 0.00 in 33 W/m2
07:54 46.9 °F 39.7 °F 29.72 in SW 3.0 mph 3.0 mph 76% 0.00 in 40 W/m2
08:00 47.0 °F 39.8 °F 29.72 in WSW 3.0 mph 3.0 mph 76% 0.00 in 23 W/m2
08:06 47.0 °F 39.5 °F 29.71 in SW 2.0 mph 3.0 mph 75% 0.00 in 28 W/m2
08:12 47.0 °F 39.5 °F 29.71 in SSW 2.0 mph 3.0 mph 75% 0.00 in 39 W/m2
08:18 46.9 °F 39.4 °F 29.71 in SW 3.0 mph 4.0 mph 75% 0.00 in 107 W/m2
08:24 47.1 °F 39.9 °F 29.72 in SW 3.0 mph 4.0 mph 76% 0.00 in 42 W/m2
08:30 47.0 °F 39.8 °F 29.71 in West 4.0 mph 4.0 mph 76% 0.00 in 58 W/m2
08:36 46.8 °F 40.0 °F 29.71 in WSW 5.0 mph 8.0 mph 77% 0.00 in 44 W/m2
08:42 46.7 °F 39.9 °F 29.71 in WSW 2.0 mph 3.0 mph 77% 0.00 in 28 W/m2
08:48 46.8 °F 40.3 °F 29.72 in SW 1.0 mph 3.0 mph 78% 0.00 in 125 W/m2
08:54 47.4 °F 40.9 °F 29.72 in SSW 2.0 mph 3.0 mph 78% 0.00 in 39 W/m2
09:00 47.2 °F 40.4 °F 29.72 in SSW 3.0 mph 3.0 mph 77% 0.00 in 35 W/m2
09:06 47.3 °F 40.5 °F 29.71 in SSW 3.0 mph 4.0 mph 77% 0.00 in 67 W/m2
09:12 47.5 °F 40.0 °F 29.71 in WSW 3.0 mph 7.0 mph 75% 0.00 in 74 W/m2
09:18 47.8 °F 39.6 °F 29.71 in SW 3.0 mph 7.0 mph 73% 0.00 in 81 W/m2
09:24 48.0 °F 39.4 °F 29.71 in SSW 4.0 mph 5.0 mph 72% 0.00 in 91 W/m2
09:30 48.2 °F 39.2 °F 29.71 in WSW 3.0 mph 3.0 mph 71% 0.00 in 100 W/m2
09:36 48.4 °F 39.1 °F 29.71 in SW 4.0 mph 7.0 mph 70% 0.00 in 113 W/m2
09:42 48.5 °F 39.2 °F 29.70 in SW 4.0 mph 10.0 mph 70% 0.00 in 144 W/m2
09:48 48.7 °F 38.6 °F 29.71 in SW 4.0 mph 10.0 mph 68% 0.00 in 137 W/m2
09:54 48.8 °F 38.7 °F 29.71 in SW 3.0 mph 6.0 mph 68% 0.00 in 86 W/m2
10:00 48.8 °F 38.3 °F 29.71 in SW 4.0 mph 4.0 mph 67% 0.00 in 128 W/m2
10:06 48.8 °F 38.7 °F 29.71 in West 3.0 mph 7.0 mph 68% 0.00 in 107 W/m2
10:12 48.8 °F 37.9 °F 29.71 in WSW 4.0 mph 6.0 mph 66% 0.00 in 98 W/m2
10:18 48.6 °F 37.4 °F 29.71 in West 5.0 mph 9.0 mph 65% 0.00 in 77 W/m2
10:24 48.5 °F 37.7 °F 29.72 in WNW 4.0 mph 5.0 mph 66% 0.00 in 60 W/m2
10:30 48.0 °F 37.9 °F 29.72 in South 3.0 mph 3.0 mph 68% 0.00 in 95 W/m2
10:36 47.5 °F 37.8 °F 29.72 in SSW 4.0 mph 5.0 mph 69% 0.00 in 104 W/m2
10:42 47.5 °F 37.8 °F 29.72 in WSW 5.0 mph 8.0 mph 69% 0.00 in 118 W/m2
10:48 47.5 °F 38.6 °F 29.72 in West 4.0 mph 8.0 mph 71% 0.00 in 130 W/m2
10:54 46.5 °F 39.0 °F 29.72 in WSW 5.0 mph 11.0 mph 75% 0.00 in 148 W/m2
11:00 45.9 °F 39.4 °F 29.71 in WSW 5.0 mph 5.0 mph 78% 0.00 in 135 W/m2
11:06 45.8 °F 39.7 °F 29.71 in SW 4.0 mph 7.0 mph 79% 0.00 in 105 W/m2
11:12 45.6 °F 39.1 °F 29.71 in SW 4.0 mph 6.0 mph 78% 0.00 in 93 W/m2
11:18 45.6 °F 39.1 °F 29.70 in West 4.0 mph 6.0 mph 78% 0.00 in 153 W/m2
11:24 45.7 °F 39.6 °F 29.70 in SW 4.0 mph 5.0 mph 79% 0.00 in 185 W/m2
11:30 46.0 °F 39.9 °F 29.70 in SW 4.0 mph 4.0 mph 79% 0.00 in 174 W/m2
11:36 46.1 °F 39.6 °F 29.70 in WSW 4.0 mph 4.0 mph 78% 0.00 in 199 W/m2
11:42 46.4 °F 39.6 °F 29.69 in West 4.0 mph 6.0 mph 77% 0.00 in 167 W/m2
11:48 46.4 °F 39.2 °F 29.69 in WSW 5.0 mph 6.0 mph 76% 0.00 in 220 W/m2
11:54 47.1 °F 39.2 °F 29.69 in West 5.0 mph 7.0 mph 74% 0.00 in 290 W/m2
12:00 46.9 °F 38.7 °F 29.69 in West 5.0 mph 5.0 mph 73% 0.00 in 214 W/m2
12:06 46.8 °F 38.6 °F 29.69 in WNW 6.0 mph 6.0 mph 73% 0.00 in 181 W/m2
12:12 46.7 °F 38.5 °F 29.69 in WSW 5.0 mph 9.0 mph 73% 0.00 in 153 W/m2
12:18 46.7 °F 38.1 °F 29.70 in West 5.0 mph 10.0 mph 72% 0.00 in 162 W/m2
12:24 46.6 °F 38.1 °F 29.70 in WSW 6.0 mph 9.0 mph 72% 0.00 in 163 W/m2
12:30 46.8 °F 38.2 °F 29.70 in West 4.0 mph 4.0 mph 72% 0.00 in 195 W/m2
12:36 46.7 °F 37.8 °F 29.70 in SSW 4.0 mph 9.0 mph 71% 0.00 in 174 W/m2
12:42 46.9 °F 37.6 °F 29.70 in SW 4.0 mph 5.0 mph 70% 0.00 in 127 W/m2
12:48 46.9 °F 37.3 °F 29.70 in West 4.0 mph 9.0 mph 69% 0.00 in 132 W/m2
12:54 47.0 °F 37.4 °F 29.70 in WSW 4.0 mph 4.0 mph 69% 0.00 in 151 W/m2
13:00 47.1 °F 37.1 °F 29.70 in SSW 4.0 mph 6.0 mph 68% 0.00 in 183 W/m2
13:06 47.4 °F 37.0 °F 29.70 in SW 4.0 mph 6.0 mph 67% 0.00 in 125 W/m2
13:12 47.0 °F 36.2 °F 29.70 in WNW 5.0 mph 5.0 mph 66% 0.00 in 56 W/m2
13:18 46.7 °F 35.9 °F 29.70 in WSW 5.0 mph 5.0 mph 66% 0.00 in 37 W/m2
13:24 46.5 °F 36.1 °F 29.70 in SW 5.0 mph 10.0 mph 67% 0.00 in 77 W/m2
13:30 46.6 °F 36.2 °F 29.70 in WSW 4.0 mph 4.0 mph 67% 0.00 in 156 W/m2
13:36 46.9 °F 36.5 °F 29.70 in WSW 4.0 mph 7.0 mph 67% 0.00 in 162 W/m2
13:42 47.1 °F 36.3 °F 29.70 in West 4.0 mph 4.0 mph 66% 0.00 in 153 W/m2
13:48 47.1 °F 36.3 °F 29.70 in WSW 5.0 mph 5.0 mph 66% 0.00 in 134 W/m2
13:54 47.0 °F 35.8 °F 29.70 in WSW 5.0 mph 5.0 mph 65% 0.00 in 127 W/m2
14:00 46.8 °F 36.0 °F 29.70 in SW 6.0 mph 6.0 mph 66% 0.00 in 130 W/m2
14:06 46.8 °F 36.4 °F 29.70 in West 4.0 mph 7.0 mph 67% 0.00 in 53 W/m2
14:12 46.3 °F 35.9 °F 29.71 in WSW 5.0 mph 10.0 mph 67% 0.00 in 40 W/m2
14:18 45.9 °F 35.6 °F 29.71 in SW 5.0 mph 10.0 mph 67% 0.00 in 40 W/m2
14:24 45.7 °F 35.4 °F 29.71 in West 5.0 mph 5.0 mph 67% 0.00 in 30 W/m2
14:30 45.6 °F 34.9 °F 29.71 in West 5.0 mph 8.0 mph 66% 0.00 in 23 W/m2
14:36 45.6 °F 34.9 °F 29.72 in WSW 5.0 mph 8.0 mph 66% 0.00 in 18 W/m2
14:42 45.4 °F 35.1 °F 29.72 in SSW 4.0 mph 6.0 mph 67% 0.00 in 18 W/m2
14:48 45.3 °F 35.0 °F 29.72 in West 3.0 mph 6.0 mph 67% 0.00 in 11 W/m2
14:54 45.2 °F 35.6 °F 29.72 in SW 4.0 mph 6.0 mph 69% 0.00 in 14 W/m2
15:00 44.6 °F 36.1 °F 29.72 in WNW 4.0 mph 6.0 mph 72% 0.00 in 14 W/m2
15:06 44.3 °F 35.5 °F 29.73 in West 5.0 mph 9.0 mph 71% 0.00 in 16 W/m2
15:12 44.2 °F 35.4 °F 29.73 in West 5.0 mph 6.0 mph 71% 0.00 in 19 W/m2
15:18 44.1 °F 35.3 °F 29.73 in West 4.0 mph 6.0 mph 71% 0.00 in 21 W/m2
15:24 43.9 °F 35.5 °F 29.73 in SSW 4.0 mph 7.0 mph 72% 0.00 in 19 W/m2
15:30 43.7 °F 35.6 °F 29.74 in West 5.0 mph 5.0 mph 73% 0.00 in 23 W/m2
15:36 43.5 °F 35.4 °F 29.74 in SW 5.0 mph 8.0 mph 73% 0.00 in 25 W/m2
15:42 43.6 °F 35.2 °F 29.74 in WSW 6.0 mph 6.0 mph 72% 0.00 in 14 W/m2
15:48 43.6 °F 35.2 °F 29.74 in WSW 6.0 mph 10.0 mph 72% 0.00 in 11 W/m2
15:54 43.6 °F 35.2 °F 29.74 in WSW 5.0 mph 6.0 mph 72% 0.00 in 11 W/m2
16:00 43.6 °F 35.5 °F 29.74 in SW 4.0 mph 5.0 mph 73% 0.00 in 14 W/m2
16:06 43.5 °F 35.8 °F 29.75 in SW 4.0 mph 10.0 mph 74% 0.00 in 0 W/m2
16:12 43.1 °F 36.0 °F 29.76 in WNW 3.0 mph 4.0 mph 76% 0.00 in 0 W/m2
16:18 42.7 °F 36.3 °F 29.76 in NW 2.0 mph 5.0 mph 78% 0.00 in 0 W/m2
16:24 42.4 °F 36.0 °F 29.76 in West 3.0 mph 7.0 mph 78% 0.00 in 0 W/m2
16:30 42.1 °F 36.1 °F 29.76 in West 3.0 mph 3.0 mph 79% 0.00 in 0 W/m2
16:36 41.8 °F 36.4 °F 29.76 in WSW 4.0 mph 5.0 mph 81% 0.00 in 0 W/m2
16:42 41.6 °F 36.5 °F 29.77 in West 4.0 mph 9.0 mph 82% 0.00 in 0 W/m2
16:48 41.6 °F 36.5 °F 29.77 in NW 4.0 mph 9.0 mph 82% 0.00 in 0 W/m2
16:54 41.7 °F 35.7 °F 29.78 in West 7.0 mph 13.0 mph 79% 0.00 in 0 W/m2
17:00 41.7 °F 35.0 °F 29.78 in WNW 8.0 mph 13.0 mph 77% 0.00 in 0 W/m2
17:06 41.5 °F 35.2 °F 29.78 in WNW 7.0 mph 13.0 mph 78% 0.00 in 0 W/m2
17:12 41.1 °F 35.1 °F 29.79 in NNW 5.0 mph 6.0 mph 79% 0.00 in 0 W/m2
17:18 40.8 °F 35.1 °F 29.80 in WNW 4.0 mph 6.0 mph 80% 0.00 in 0 W/m2
17:24 40.3 °F 35.2 °F 29.80 in WNW 4.0 mph 9.0 mph 82% 0.00 in 0 W/m2
17:30 40.0 °F 35.3 °F 29.81 in West 6.0 mph 6.0 mph 83% 0.00 in 0 W/m2
17:36 39.8 °F 35.4 °F 29.81 in NW 5.0 mph 9.0 mph 84% 0.00 in 0 W/m2
17:42 39.6 °F 35.2 °F 29.81 in WNW 4.0 mph 5.0 mph 84% 0.00 in 0 W/m2
17:48 39.6 °F 35.5 °F 29.81 in WNW 4.0 mph 6.0 mph 85% 0.00 in 0 W/m2
17:54 39.6 °F 35.5 °F 29.81 in West 3.0 mph 3.0 mph 85% 0.00 in 0 W/m2
18:00 39.5 °F 35.4 °F 29.81 in West 3.0 mph 4.0 mph 85% 0.00 in 0 W/m2
18:06 39.6 °F 35.5 °F 29.82 in WNW 3.0 mph 8.0 mph 85% 0.00 in 0 W/m2
18:12 39.7 °F 35.3 °F 29.82 in WNW 3.0 mph 3.0 mph 84% 0.00 in 0 W/m2
18:18 39.8 °F 35.4 °F 29.82 in West 2.0 mph 5.0 mph 84% 0.00 in 0 W/m2
18:24 40.0 °F 35.3 °F 29.83 in WNW 3.0 mph 5.0 mph 83% 0.00 in 0 W/m2
18:30 40.1 °F 35.0 °F 29.83 in WNW 4.0 mph 5.0 mph 82% 0.00 in 0 W/m2
18:36 39.9 °F 34.9 °F 29.83 in West 5.0 mph 9.0 mph 82% 0.00 in 0 W/m2
18:42 39.5 °F 34.8 °F 29.83 in West 5.0 mph 5.0 mph 83% 0.00 in 0 W/m2
18:48 39.3 °F 34.9 °F 29.83 in West 3.0 mph 7.0 mph 84% 0.00 in 0 W/m2
18:54 39.3 °F 34.9 °F 29.83 in WNW 4.0 mph 4.0 mph 84% 0.00 in 0 W/m2
19:00 39.4 °F 35.0 °F 29.84 in WNW 3.0 mph 4.0 mph 84% 0.00 in 0 W/m2
19:12 39.4 °F 35.0 °F 29.84 in WNW 4.0 mph 6.0 mph 84% 0.10 in 0 W/m2
19:18 38.8 °F 34.4 °F 29.84 in WNW 5.0 mph 6.0 mph 84% 0.11 in 0 W/m2
19:24 38.6 °F 34.8 °F 29.84 in WNW 4.0 mph 5.0 mph 86% 0.05 in 0 W/m2
19:30 38.5 °F 35.0 °F 29.84 in NW 4.0 mph 4.0 mph 87% 0.00 in 0 W/m2
19:36 38.6 °F 35.1 °F 29.84 in WNW 3.0 mph 9.0 mph 87% 0.00 in 0 W/m2
19:42 38.6 °F 35.1 °F 29.85 in WNW 3.0 mph 10.0 mph 87% 0.00 in 0 W/m2
19:48 38.6 °F 35.1 °F 29.85 in WNW 3.0 mph 10.0 mph 87% 0.00 in 0 W/m2
19:54 38.7 °F 35.2 °F 29.86 in NW 4.0 mph 9.0 mph 87% 0.00 in 0 W/m2
20:00 38.8 °F 35.0 °F 29.86 in WNW 5.0 mph 5.0 mph 86% 0.00 in 0 W/m2
20:06 39.1 °F 34.7 °F 29.86 in West 6.0 mph 7.0 mph 84% 0.00 in 0 W/m2
20:12 39.2 °F 34.2 °F 29.86 in WNW 6.0 mph 9.0 mph 82% 0.00 in 0 W/m2
20:18 39.2 °F 33.9 °F 29.87 in WNW 5.0 mph 9.0 mph 81% 0.00 in 0 W/m2
20:24 39.2 °F 33.5 °F 29.87 in NW 5.0 mph 7.0 mph 80% 0.00 in 0 W/m2
20:30 39.1 °F 33.5 °F 29.88 in WNW 5.0 mph 5.0 mph 80% 0.00 in 0 W/m2
20:36 38.6 °F 33.3 °F 29.88 in West 5.0 mph 7.0 mph 81% 0.00 in 0 W/m2
20:42 37.6 °F 33.2 °F 29.89 in West 5.0 mph 5.0 mph 84% 0.00 in 0 W/m2
20:48 37.2 °F 33.1 °F 29.89 in WNW 5.0 mph 5.0 mph 85% 0.00 in 0 W/m2
20:54 37.2 °F 33.1 °F 29.89 in NW 4.0 mph 8.0 mph 85% 0.00 in 0 W/m2
21:00 37.0 °F 32.9 °F 29.90 in NW 4.0 mph 4.0 mph 85% 0.00 in 0 W/m2
21:06 36.6 °F 32.8 °F 29.90 in WNW 6.0 mph 11.0 mph 86% 0.08 in 0 W/m2
21:12 36.1 °F 32.3 °F 29.90 in NNW 6.0 mph 8.0 mph 86% 0.07 in 0 W/m2
21:18 36.2 °F 32.7 °F 29.90 in WNW 6.0 mph 8.0 mph 87% 0.07 in 0 W/m2
21:24 36.4 °F 32.9 °F 29.90 in WNW 6.0 mph 6.0 mph 87% 0.05 in 0 W/m2
21:30 36.1 °F 32.3 °F 29.91 in NNW 6.0 mph 6.0 mph 86% 0.00 in 0 W/m2
21:36 35.8 °F 32.3 °F 29.91 in West 6.0 mph 7.0 mph 87% 0.00 in 0 W/m2
21:42 35.8 °F 32.6 °F 29.91 in NW 5.0 mph 6.0 mph 88% 0.00 in 0 W/m2
21:48 35.9 °F 32.4 °F 29.91 in WNW 4.0 mph 7.0 mph 87% 0.00 in 0 W/m2
21:54 36.0 °F 32.2 °F 29.92 in WNW 4.0 mph 6.0 mph 86% 0.00 in 0 W/m2
22:00 36.2 °F 32.1 °F 29.92 in NW 4.0 mph 4.0 mph 85% 0.00 in 0 W/m2
22:06 36.3 °F 31.9 °F 29.92 in WNW 4.0 mph 7.0 mph 84% 0.00 in 0 W/m2
22:22 36.4 °F 30.8 °F 29.92 in NNW 6.0 mph 6.0 mph 80% 0.00 in 0 W/m2
22:28 36.3 °F 30.7 °F 29.93 in NNW 4.0 mph 6.0 mph 80% 0.00 in 0 W/m2
22:34 36.3 °F 30.7 °F 29.93 in WNW 4.0 mph 5.0 mph 80% 0.00 in 0 W/m2
22:40 36.3 °F 30.4 °F 29.93 in WNW 4.0 mph 6.0 mph 79% 0.00 in 0 W/m2
22:44 36.3 °F 30.4 °F 29.93 in WNW 4.0 mph 6.0 mph 79% 0.00 in 0 W/m2
22:50 36.4 °F 30.5 °F 29.93 in WNW 4.0 mph 4.0 mph 79% 0.00 in 0 W/m2
23:00 36.3 °F 30.7 °F 29.94 in WNW 3.0 mph 3.0 mph 80% 0.00 in 0 W/m2
23:06 36.4 °F 30.8 °F 29.94 in West 3.0 mph 5.0 mph 80% 0.00 in 0 W/m2
23:10 36.4 °F 30.5 °F 29.94 in NW 4.0 mph 6.0 mph 79% 0.00 in 0 W/m2
23:16 36.4 °F 30.5 °F 29.95 in NW 5.0 mph 8.0 mph 79% 0.00 in 0 W/m2
23:22 36.4 °F 30.5 °F 29.95 in NW 4.0 mph 4.0 mph 79% 0.00 in 0 W/m2
23:28 36.4 °F 30.2 °F 29.95 in West 5.0 mph 8.0 mph 78% 0.00 in 0 W/m2
23:34 36.3 °F 30.1 °F 29.95 in NW 5.0 mph 9.0 mph 78% 0.00 in 0 W/m2
23:40 36.3 °F 30.1 °F 29.96 in WNW 5.0 mph 11.0 mph 78% 0.00 in 0 W/m2
23:46 36.2 °F 30.3 °F 29.96 in WNW 4.0 mph 11.0 mph 79% 0.00 in 0 W/m2
23:52 36.0 °F 30.1 °F 29.96 in WNW 4.0 mph 4.0 mph 79% 0.00 in 0 W/m2
23:58 36.0 °F 30.1 °F 29.97 in NW 5.0 mph 5.0 mph 79% 0.00 in 0 W/m2
Country Meadow, Clay, NY, USA
Compliments of Weather Underground - 2 mb